�������l�o���
Date,Time,MP-1(��Sv/h),MP-2(��Sv/h),MP-3(��Sv/h),MP-4(��Sv/h),MP-5(��Sv/h),MP-6(��Sv/h),MP-7(��Sv/h),MP-8(��Sv/h),����,����(m/s),���J
2021/07/16,00:00,0.602,0.899,0.576,1.088,0.778,0.368,0.635,0.594,��쐼,2.6,��
2021/07/16,00:10,0.603,0.898,0.576,1.090,0.776,0.370,0.635,0.594,��,2.8,��
2021/07/16,00:20,0.605,0.899,0.576,1.088,0.775,0.369,0.636,0.592,��쐼,2.2,��
2021/07/16,00:30,0.603,0.897,0.576,1.087,0.778,0.369,0.633,0.595,��쐼,1.5,��
2021/07/16,00:40,0.604,0.899,0.577,1.086,0.775,0.368,0.635,0.594,��,1.4,��
2021/07/16,00:50,0.603,0.899,0.575,1.088,0.776,0.368,0.633,0.594,��쓌,1.5,��
2021/07/16,01:00,0.603,0.899,0.578,1.086,0.774,0.369,0.635,0.594,��,1.9,��
2021/07/16,01:10,0.603,0.898,0.576,1.088,0.777,0.369,0.635,0.595,��쓌,2.3,��
2021/07/16,01:20,0.603,0.900,0.576,1.087,0.777,0.369,0.635,0.593,��쓌,2.0,��
2021/07/16,01:30,0.603,0.899,0.576,1.088,0.776,0.368,0.636,0.594,��쓌,2.0,��
2021/07/16,01:40,0.604,0.897,0.577,1.088,0.776,0.369,0.635,0.594,��,2.3,��
2021/07/16,01:50,0.604,0.898,0.577,1.090,0.778,0.368,0.635,0.594,��,3.1,��
2021/07/16,02:00,0.604,0.898,0.576,1.088,0.778,0.369,0.634,0.593,��,3.3,��
2021/07/16,02:10,0.604,0.896,0.577,1.088,0.777,0.369,0.636,0.593,��,3.0,��
2021/07/16,02:20,0.604,0.898,0.576,1.088,0.776,0.369,0.633,0.594,��,2.8,��
2021/07/16,02:30,0.602,0.898,0.578,1.086,0.777,0.370,0.635,0.594,��쐼,2.5,��
2021/07/16,02:40,0.604,0.897,0.576,1.087,0.776,0.370,0.636,0.594,��,1.7,��
2021/07/16,02:50,0.605,0.896,0.576,1.087,0.777,0.370,0.635,0.593,��,1.9,��
2021/07/16,03:00,0.603,0.900,0.578,1.086,0.775,0.369,0.637,0.593,��,1.7,��
2021/07/16,03:10,0.602,0.898,0.576,1.086,0.779,0.368,0.634,0.593,��쐼,1.2,��
2021/07/16,03:20,0.602,0.899,0.577,1.085,0.775,0.369,0.635,0.594,���쐼,1.4,��
2021/07/16,03:30,0.605,0.898,0.576,1.087,0.775,0.370,0.635,0.593,�쐼,1.5,��
2021/07/16,03:40,0.602,0.897,0.577,1.087,0.777,0.370,0.636,0.593,��쐼,2.3,��
2021/07/16,03:50,0.604,0.897,0.576,1.088,0.776,0.369,0.634,0.594,��,2.3,��
2021/07/16,04:00,0.602,0.897,0.577,1.086,0.777,0.371,0.635,0.593,��쓌,2.5,��
2021/07/16,04:10,0.601,0.898,0.576,1.088,0.776,0.369,0.636,0.594,��쓌,1.9,��
2021/07/16,04:20,0.603,0.897,0.576,1.088,0.776,0.370,0.636,0.595,��쓌,0.9,��
2021/07/16,04:30,0.602,0.897,0.576,1.088,0.776,0.369,0.636,0.594,-,CALM,��
2021/07/16,04:40,0.603,0.898,0.576,1.088,0.775,0.369,0.635,0.593,��쐼,0.6,��
2021/07/16,04:50,0.605,0.897,0.575,1.088,0.775,0.369,0.637,0.594,��쓌,0.9,��
2021/07/16,05:00,0.604,0.899,0.576,1.089,0.776,0.368,0.635,0.592,��쐼,0.6,��
2021/07/16,05:10,0.603,0.897,0.577,1.089,0.776,0.369,0.636,0.594,��쓌,0.9,��
2021/07/16,05:20,0.603,0.897,0.575,1.089,0.777,0.368,0.637,0.593,��쓌,0.9,��
2021/07/16,05:30,0.603,0.899,0.575,1.087,0.775,0.369,0.636,0.595,-,CALM,��
2021/07/16,05:40,0.600,0.897,0.577,1.088,0.775,0.370,0.635,0.595,��,0.9,��
2021/07/16,05:50,0.601,0.897,0.575,1.089,0.778,0.370,0.634,0.592,��쓌,1.5,��
2021/07/16,06:00,0.601,0.897,0.576,1.087,0.776,0.367,0.636,0.594,��,0.8,��
2021/07/16,06:10,0.604,0.897,0.577,1.087,0.775,0.369,0.636,0.593,��,1.2,��
2021/07/16,06:20,0.603,0.899,0.577,1.088,0.774,0.368,0.636,0.594,��,1.7,��
2021/07/16,06:30,0.605,0.894,0.576,1.086,0.776,0.369,0.636,0.594,��,1.7,��
2021/07/16,06:40,0.604,0.898,0.578,1.087,0.774,0.371,0.638,0.595,��,1.5,��
2021/07/16,06:50,0.604,0.897,0.576,1.089,0.776,0.369,0.636,0.595,��쓌,1.5,��
2021/07/16,07:00,0.605,0.897,0.576,1.087,0.775,0.368,0.637,0.594,��쓌,2.2,��
2021/07/16,07:10,0.603,0.900,0.577,1.088,0.775,0.366,0.636,0.594,��쓌,2.8,��
2021/07/16,07:20,0.604,0.898,0.576,1.087,0.774,0.367,0.633,0.594,��쓌,3.0,��
2021/07/16,07:30,0.605,0.898,0.578,1.088,0.775,0.366,0.635,0.593,��쓌,2.7,��
2021/07/16,07:40,0.604,0.895,0.576,1.086,0.775,0.366,0.636,0.592,�쓌,3.0,��
2021/07/16,07:50,0.603,0.895,0.576,1.089,0.777,0.369,0.636,0.593,��쓌,3.6,��
2021/07/16,08:00,0.603,0.895,0.575,1.088,0.776,0.369,0.635,0.592,��쓌,3.3,��
2021/07/16,08:10,0.604,0.898,0.576,1.086,0.775,0.367,0.635,0.592,��쓌,3.6,��
2021/07/16,08:20,0.603,0.898,0.577,1.088,0.775,0.367,0.633,0.591,�쓌,3.9,��
2021/07/16,08:30,0.605,0.898,0.577,1.088,0.775,0.368,0.634,0.593,��쓌,3.7,��
2021/07/16,08:40,0.602,0.898,0.577,1.087,0.776,0.369,0.634,0.592,��쓌,4.1,��
2021/07/16,08:50,0.601,0.897,0.574,1.088,0.777,0.368,0.635,0.592,��쓌,3.8,��
2021/07/16,09:00,0.602,0.896,0.575,1.086,0.775,0.368,0.636,0.592,��쓌,3.2,��
2021/07/16,09:10,0.601,0.896,0.575,1.087,0.775,0.367,0.637,0.592,�쓌,2.4,��
2021/07/16,09:20,0.603,0.897,0.576,1.087,0.775,0.367,0.636,0.592,���쓌,2.3,��
2021/07/16,09:30,0.604,0.897,0.576,1.089,0.776,0.368,0.635,0.593,�쓌,3.1,��
2021/07/16,09:40,0.604,0.898,0.575,1.088,0.775,0.367,0.635,0.592,�쓌,3.8,��
2021/07/16,09:50,0.604,0.898,0.575,1.088,0.776,0.367,0.636,0.592,�쓌,4.7,��
2021/07/16,10:00,0.605,0.893,0.575,1.086,0.778,0.368,0.635,0.592,�쓌,3.4,��
2021/07/16,10:10,0.604,0.896,0.576,1.088,0.775,0.368,0.634,0.593,�쓌,3.4,��
2021/07/16,10:20,0.604,0.897,0.575,1.090,0.776,0.367,0.633,0.593,��쓌,3.0,��
2021/07/16,10:30,0.602,0.896,0.575,1.090,0.776,0.367,0.635,0.592,��쓌,4.4,��
2021/07/16,10:40,0.602,0.895,0.576,1.090,0.777,0.368,0.636,0.592,��쓌,6.6,��
2021/07/16,10:50,0.605,0.896,0.576,1.088,0.776,0.367,0.637,0.593,��쓌,5.2,��
2021/07/16,11:00,0.603,0.896,0.576,1.090,0.777,0.367,0.635,0.594,��쓌,6.3,��
2021/07/16,11:10,0.605,0.897,0.574,1.091,0.778,0.368,0.635,0.593,��,6.5,��
2021/07/16,11:20,0.603,0.898,0.577,1.090,0.779,0.370,0.636,0.593,��,6.6,��
2021/07/16,11:30,0.605,0.898,0.576,1.087,0.779,0.367,0.637,0.593,��,5.6,��
2021/07/16,11:40,0.604,0.899,0.578,1.086,0.778,0.368,0.636,0.593,��,5.7,��
2021/07/16,11:50,0.606,0.900,0.576,1.088,0.778,0.367,0.637,0.594,��,7.7,��
2021/07/16,12:00,0.605,0.898,0.578,1.087,0.779,0.367,0.636,0.592,��,7.7,��
2021/07/16,12:10,0.605,0.901,0.578,1.088,0.780,0.369,0.637,0.594,��쓌,8.0,��
2021/07/16,12:20,0.606,0.902,0.578,1.087,0.779,0.368,0.635,0.594,��쓌,8.8,��
2021/07/16,12:30,0.606,0.903,0.579,1.089,0.781,0.369,0.637,0.595,��쓌,10.6,��
2021/07/16,12:40,0.608,0.899,0.578,1.090,0.783,0.368,0.637,0.594,��쓌,8.8,��
2021/07/16,12:50,0.606,0.903,0.578,1.089,0.780,0.368,0.636,0.594,��쓌,7.9,��
2021/07/16,13:00,0.608,0.901,0.578,1.090,0.780,0.368,0.637,0.593,��쓌,8.9,��
2021/07/16,13:10,0.607,0.902,0.579,1.088,0.782,0.369,0.635,0.594,��쓌,8.1,��
2021/07/16,13:20,0.606,0.901,0.577,1.091,0.782,0.369,0.636,0.594,��쓌,9.5,��
2021/07/16,13:30,0.607,0.902,0.577,1.091,0.782,0.368,0.637,0.593,��,10.5,��
2021/07/16,13:40,0.607,0.900,0.578,1.091,0.783,0.368,0.636,0.594,��쓌,11.6,��
2021/07/16,13:50,0.604,0.901,0.578,1.090,0.785,0.369,0.637,0.594,��,11.9,��
2021/07/16,14:00,0.605,0.901,0.579,1.088,0.782,0.370,0.636,0.593,��쓌,11.4,��
2021/07/16,14:10,0.607,0.901,0.578,1.091,0.783,0.369,0.637,0.593,��쓌,11.3,��
2021/07/16,14:20,0.608,0.903,0.581,1.093,0.782,0.368,0.636,0.592,��쓌,11.3,�L
2021/07/16,14:30,0.607,0.905,0.579,1.092,0.783,0.370,0.637,0.594,��쓌,10.6,��
2021/07/16,14:40,0.607,0.902,0.579,1.093,0.782,0.370,0.637,0.595,��쓌,11.6,��
2021/07/16,14:50,0.606,0.905,0.579,1.091,0.784,0.370,0.638,0.595,��,11.0,��
2021/07/16,15:00,0.607,0.902,0.581,1.092,0.784,0.370,0.635,0.597,��쓌,11.8,��
2021/07/16,15:10,0.607,0.904,0.580,1.093,0.784,0.370,0.636,0.595,��,11.4,��
2021/07/16,15:20,0.608,0.903,0.581,1.093,0.783,0.370,0.636,0.596,��쓌,12.7,��
2021/07/16,15:30,0.608,0.905,0.579,1.094,0.784,0.370,0.640,0.596,��,11.6,��
2021/07/16,15:40,0.609,0.905,0.582,1.094,0.785,0.369,0.639,0.593,��,11.8,��
2021/07/16,15:50,0.607,0.904,0.580,1.093,0.783,0.369,0.639,0.595,��,10.3,��
2021/07/16,16:00,0.608,0.905,0.580,1.094,0.784,0.369,0.638,0.595,��,9.8,��
2021/07/16,16:10,0.609,0.904,0.580,1.097,0.784,0.370,0.639,0.597,��,8.7,��
2021/07/16,16:20,0.609,0.904,0.581,1.097,0.783,0.370,0.638,0.594,��,7.6,��
2021/07/16,16:30,0.608,0.904,0.579,1.095,0.787,0.369,0.639,0.595,��쓌,8.3,��
2021/07/16,16:40,0.607,0.906,0.581,1.099,0.786,0.369,0.638,0.593,��,7.6,��
2021/07/16,16:50,0.608,0.905,0.579,1.096,0.786,0.370,0.637,0.594,��,8.8,��
2021/07/16,17:00,0.608,0.906,0.579,1.099,0.786,0.370,0.637,0.593,��,7.8,��
2021/07/16,17:10,0.609,0.907,0.580,1.097,0.788,0.371,0.639,0.595,��,8.7,��
2021/07/16,17:20,0.609,0.907,0.580,1.098,0.785,0.372,0.637,0.593,��,8.8,��
2021/07/16,17:30,0.608,0.907,0.579,1.096,0.786,0.370,0.637,0.595,��쓌,9.4,��
2021/07/16,17:40,0.607,0.906,0.580,1.096,0.785,0.370,0.637,0.594,��,9.1,��
2021/07/16,17:50,0.608,0.905,0.580,1.099,0.786,0.370,0.638,0.594,��,10.0,��
2021/07/16,18:00,0.609,0.906,0.579,1.096,0.787,0.370,0.636,0.596,��,8.9,��
2021/07/16,18:10,0.608,0.905,0.580,1.099,0.787,0.371,0.638,0.593,��,8.2,��
2021/07/16,18:20,0.607,0.906,0.580,1.097,0.785,0.370,0.637,0.594,��,7.4,��
2021/07/16,18:30,0.607,0.906,0.579,1.093,0.787,0.369,0.638,0.593,��,7.1,��
2021/07/16,18:40,0.607,0.905,0.580,1.097,0.786,0.368,0.638,0.595,��,7.3,��
2021/07/16,18:50,0.608,0.906,0.578,1.097,0.783,0.371,0.636,0.595,��,7.5,��
2021/07/16,19:00,0.606,0.909,0.580,1.098,0.785,0.370,0.638,0.596,��,6.9,��
2021/07/16,19:10,0.608,0.906,0.578,1.098,0.788,0.370,0.638,0.595,��,7.3,��
2021/07/16,19:20,0.607,0.909,0.579,1.098,0.789,0.371,0.636,0.596,��,7.2,��
2021/07/16,19:30,0.610,0.909,0.578,1.098,0.788,0.371,0.637,0.596,��쐼,6.5,��
2021/07/16,19:40,0.608,0.912,0.580,1.097,0.787,0.371,0.636,0.594,��,7.2,��
2021/07/16,19:50,0.610,0.908,0.579,1.098,0.787,0.370,0.638,0.594,��,6.5,��
2021/07/16,20:00,0.610,0.908,0.582,1.098,0.786,0.370,0.637,0.595,��,6.5,��
2021/07/16,20:10,0.609,0.909,0.580,1.099,0.788,0.370,0.637,0.595,��,6.6,��
2021/07/16,20:20,0.609,0.908,0.581,1.101,0.786,0.372,0.637,0.595,��,6.5,��
2021/07/16,20:30,0.609,0.907,0.581,1.098,0.787,0.372,0.638,0.594,��,5.7,��
2021/07/16,20:40,0.610,0.908,0.581,1.099,0.788,0.371,0.638,0.595,��,6.1,��
2021/07/16,20:50,0.611,0.909,0.582,1.099,0.788,0.370,0.637,0.595,��,6.3,��
2021/07/16,21:00,0.610,0.909,0.582,1.101,0.787,0.370,0.637,0.596,��,7.2,��
2021/07/16,21:10,0.608,0.908,0.581,1.097,0.787,0.370,0.636,0.596,��,6.0,��
2021/07/16,21:20,0.609,0.909,0.581,1.097,0.788,0.370,0.637,0.593,��,6.0,��
2021/07/16,21:30,0.611,0.908,0.580,1.100,0.788,0.373,0.638,0.595,��쐼,6.5,��
2021/07/16,21:40,0.609,0.908,0.582,1.098,0.789,0.371,0.638,0.595,��,6.3,��
2021/07/16,21:50,0.610,0.906,0.583,1.097,0.786,0.370,0.637,0.595,��쐼,6.4,��
2021/07/16,22:00,0.608,0.910,0.583,1.098,0.788,0.370,0.637,0.595,��쐼,6.0,��
2021/07/16,22:10,0.608,0.909,0.582,1.098,0.789,0.370,0.636,0.595,��쐼,5.8,��
2021/07/16,22:20,0.608,0.907,0.582,1.097,0.787,0.370,0.637,0.595,��쐼,6.0,��
2021/07/16,22:30,0.608,0.907,0.582,1.100,0.788,0.371,0.638,0.595,��쐼,6.1,��
2021/07/16,22:40,0.608,0.909,0.583,1.098,0.787,0.371,0.637,0.595,��쐼,5.3,��
2021/07/16,22:50,0.608,0.909,0.583,1.099,0.789,0.371,0.637,0.594,��쐼,5.2,��
2021/07/16,23:00,0.609,0.909,0.583,1.097,0.788,0.371,0.638,0.594,��쐼,4.6,��
2021/07/16,23:10,0.609,0.910,0.582,1.097,0.787,0.371,0.638,0.595,��쐼,4.0,��
2021/07/16,23:20,0.610,0.909,0.581,1.098,0.788,0.371,0.637,0.597,��쐼,3.7,��
2021/07/16,23:30,0.610,0.909,0.584,1.099,0.788,0.370,0.638,0.596,��쐼,3.8,��
2021/07/16,23:40,0.607,0.910,0.583,1.099,0.787,0.370,0.638,0.596,��쐼,3.5,��
2021/07/16,23:50,0.611,0.907,0.582,1.098,0.788,0.370,0.639,0.593,��쐼,4.2,��
